Regional Weather Roundup
Issued by NWS Goodland, KS

Home | Current Version | Previous Version | Graphics & Text | Print | Product List | Glossary On
Versions: 1 2 3 4 5 6 7 8 9 10 11 12 13 14 15 16 17 18 19 20 21 22 23 24 25 26 27 28 29 30 31 32 33 34 35 36 37 38 39 40 41 42 43 44 45 46 47 48 49 50
000
ASUS43 KGLD 250108
RWRGLD

GOODLAND FORECAST AREA HOURLY WEATHER ROUNDUP
NATIONAL WEATHER SERVICE GOODLAND KS
700 PM MDT WED MAY 24 2017

...OFFICIAL OBSERVATIONS...

CITY           SKY/WX    TMP DP  RH WIND       PRES   REMARKS
GOODLAND KS    SUNNY     73  46  38 S13       29.58F
HILL CITY KS   CLEAR     69  42  37 SE10      29.63S
IMPERIAL NEB   SUNNY     71  44  37 SE22G29   29.53F
MCCOOK NEB     CLEAR     70  45  40 SE15      29.59S
AKRON CO       SUNNY     77  43  29 SW5       29.57F
BURLINGTON CO  SUNNY     72  46  39 S12       29.60F
LIMON CO       SUNNY     74  39  28 S15       29.64F
$$

...UNOFFICIAL OBSERVATIONS...

CITY           SKY/WX    TMP DP  RH WIND       PRES   REMARKS
NORTON KS      CLEAR     63  37  39 SE10      29.62S
SHARON SPRINGS   N/A     72  48  42 SE12        N/A
TRENTON NEB      N/A     70  32  24 S10         N/A
KIT CARSON CO    N/A     77  45  31 MISG        N/A
YUMA CO        FAIR      75  45  33 S13G21    29.54F
$$




USA.gov is the U.S. government's official web portal to all federal, state and local government web resources and services.